Regional Weather Roundup
Issued by NWS

Home | Current Version | Previous Version | Graphics & Text | Print | Product List | Glossary On
Versions: 1 2 3 4 5 6 7 8 9 10 11 12 13 14 15 16 17 18 19 20 21 22 23 24 25 26 27 28 29 30 31 32 33 34 35 36 37 38 39 40 41 42 43 44 45 46 47 48 49 50
000
ASUS43 KFSD 271802
RWRSD

WEATHER ROUNDUP FOR SOUTH DAKOTA
NATIONAL WEATHER SERVICE SIOUX FALLS SD
100 PM CDT THU APR 27 2017

NOTE: "FAIR" INDICATES FEW OR NO CLOUDS BELOW 12,000 FEET WITH NO
SIGNIFICANT WEATHER AND/OR OBSTRUCTIONS TO VISIBILITY.


SDZ001>005-009-010-012>017-271900-
NORTHWEST AND NORTH CENTRAL SOUTH DAKOTA

CITY           SKY/WX    TMP DP  RH WIND       PRES   REMARKS
BUFFALO          N/A     41  30  65 E14       29.60F
FAITH            N/A     36  28  73 NE8       29.70F
MOBRIDGE       SUNNY     48  26  42 N10       29.68F
$$

SDZ012>016-024>037-041>051-057-063-072>074-271900-
SOUTHWEST AND SOUTH CENTRAL SOUTH DAKOTA

CITY           SKY/WX    TMP DP  RH WIND       PRES   REMARKS
RAPID CTY ARPT PTSUNNY   45  32  60 E10       29.64F
PIERRE         CLOUDY    40  28  62 MISG      29.72S
CUSTER         CLOUDY    35  27  72 E12       29.59S WCI  27
ELLSWORTH AFB  PTSUNNY   44  34  67 SE9       29.64
PHILIP         PTSUNNY   40  31  70 VRB6      29.70F
PINE RIDGE     CLOUDY    47  33  58 E12       29.62S
SPEARFISH      FAIR      41  36  81 E17G23    29.61F
WINNER         FAIR      44  31  60 SE3       29.71F
$$

SDZ004>011-016>023-039-040-271900-
NORTHEAST SOUTH DAKOTA

CITY           SKY/WX    TMP DP  RH WIND       PRES   REMARKS
ABERDEEN       SUNNY     37  22  54 N16       29.73F
WATERTOWN      CLOUDY    33  25  72 NW18      29.67S WCI  22
BROOKINGS      CLOUDY    35  26  69 NW16      29.67F WCI  25
SISSETON         N/A     34  25  69 N21       29.69S WCI  22
$$

SDZ017-020-022-023-036>040-048>070-271900-
SOUTHEAST SOUTH DAKOTA

CITY           SKY/WX    TMP DP  RH WIND       PRES   REMARKS
SIOUX FALLS    PTSUNNY   40  30  67 NW15G23   29.69F
HURON          CLOUDY    40  28  62 NW10G23   29.72F
CHAMBERLAIN    PTSUNNY   44  31  61 N3        29.72F
MITCHELL       MOSUNNY   44  29  55 N15G21    29.73F
YANKTON        PTSUNNY   43  28  56 NW10G17   29.71S
$$

ABBREVIATIONS USED IN REMARKS
   TC - TEMPERATURE IN CELSIUS
  WCI - WIND CHILL INDEX
   HX - HEAT INDEX
  VSB - VISIBILITY




USA.gov is the U.S. government's official web portal to all federal, state and local government web resources and services.